Theta_e
309 311 312 312 312 313 313 311 315 316 318 319 319 318 318 318 317 313 307 314 318 322 322 316 315 313 312 308 309 307 296 291 292 290 291 295 302 306 309 307 308 308 311 321 323
309 312 312 314 314 313 314 315 316 317 317 315 318 318 318 318 312 307 314 321 322 324 315 312 309 311 306 305 305 304 297 295 295 291 293 296 300 304 305 304 309 314 320 322 322
309 311 313 314 313 313 317 316 317 316 315 313 315 317 318 316 306 305 318 319 324 324 316 314 313 310 304 303 301 301 300 294 294 295 296 297 298 302 304 300 306 312 316 319 320
309 311 312 314 314 316 316 316 316 315 314 313 313 317 318 312 291 308 318 320 324 319 314 313 311 306 302 299 301 297 298 296 297 296 296 298 301 298 297 299 305 319 320 320 319
309 310 311 313 314 315 314 315 315 314 313 313 312 317 312 301 301 310 318 318 317 313 312 311 308 306 300 299 300 296 296 297 297 297 296 298 297 299 297 302 310 315 317 318 319
308 309 310 313 314 315 314 314 314 314 313 312 314 317 307 294 310 311 311 314 311 310 309 311 309 308 301 299 298 297 296 296 296 296 295 295 294 295 298 302 310 314 313 313 316
307 308 310 311 314 315 315 315 314 314 314 315 317 313 303 300 309 309 311 312 311 309 306 308 311 307 304 299 302 299 294 296 295 295 294 295 292 293 298 303 308 309 310 311 312
307 308 310 311 313 315 316 316 315 315 316 316 317 308 299 309 311 309 310 309 309 309 311 311 310 305 302 303 301 297 296 292 295 294 294 294 291 292 299 301 302 305 306 303 304
307 308 310 311 312 314 316 315 316 316 316 315 309 301 297 312 306 308 309 306 306 307 307 310 307 301 301 297 294 296 290 291 294 297 293 292 291 294 297 299 299 299 300 301 302
306 308 309 311 311 312 314 314 316 314 312 310 308 298 303 300 305 306 308 307 304 303 303 301 300 296 296 295 289 290 291 291 291 295 292 289 290 293 296 298 299 299 299 300 301
306 308 309 310 310 310 306 303 300 299 302 297 297 298 300 304 307 304 305 304 302 299 294 296 294 292 293 295 295 294 292 290 291 294 291 291 291 293 294 294 295 297 298 299 301
306 307 309 309 309 307 302 296 296 297 294 301 299 299 302 302 299 301 305 298 297 291 293 292 288 293 297 296 295 294 291 289 292 293 291 290 290 295 295 294 297 297 297 299 300
305 306 308 309 307 299 295 295 300 301 293 296 300 299 300 301 296 297 300 298 294 291 290 289 291 295 293 291 290 289 289 287 289 291 289 287 285 288 292 295 296 296 298 298 299
305 305 307 308 300 295 292 296 298 301 285 289 294 298 298 298 295 301 301 297 295 291 291 290 293 292 291 289 289 285 290 291 290 286 281 288 279 286 288 290 293 295 295 296 296
304 304 305 304 294 292 295 296 298 295 272 290 293 303 296 294 295 297 301 297 291 291 290 287 288 290 289 289 291 288 290 288 288 285 282 283 280 285 287 288 290 293 294 296 296
303 303 303 296 294 294 295 296 293 278 269 285 291 289 289 292 293 295 295 297 295 292 291 289 291 291 290 291 291 292 288 286 285 282 274 279 279 282 285 288 291 292 294 295 295
303 302 297 295 290 294 294 290 278 271 284 283 284 287 286 286 289 290 289 288 288 285 285 288 288 291 292 289 290 289 284 276 273 273 274 281 279 283 288 291 291 292 293 293 294
301 298 295 293 292 293 291 283 268 272 282 287 286 287 282 284 285 286 285 285 288 287 285 283 281 288 291 289 287 285 285 278 272 273 276 282 278 283 289 290 291 291 291 292 292
298 288 288 291 292 292 287 271 271 277 285 285 284 279 281 285 284 282 282 283 285 287 283 282 282 287 289 290 291 285 282 286 281 274 275 278 281 286 287 288 288 288 289 290 290
286 284 285 290 291 291 281 276 278 284 288 286 280 282 277 282 281 280 281 284 284 288 287 284 280 285 288 289 289 287 289 281 280 269 271 276 278 279 283 286 287 288 288 288 289
284 280 285 289 291 286 276 274 282 287 287 285 282 282 282 282 281 280 281 284 286 285 287 286 283 281 286 284 284 284 283 284 283 280 276 273 276 284 285 286 287 287 287 287 288
281 272 286 288 280 271 277 277 285 285 287 286 285 284 283 283 281 281 281 283 287 286 283 285 283 278 280 285 286 286 285 285 279 277 279 279 279 286 286 286 286 288 287 288 289
276 275 285 286 275 271 271 281 282 284 284 285 284 285 284 283 279 282 283 288 288 286 284 286 277 270 276 279 282 282 284 286 285 283 280 276 279 286 286 289 290 288 289 290 289
276 273 277 276 269 276 276 274 276 283 284 285 285 285 284 282 284 280 283 288 289 289 294 290 282 278 274 277 280 280 281 283 284 280 281 282 283 288 290 288 289 290 290 289 289
274 271 276 272 272 271 277 276 275 275 280 284 283 284 283 275 278 280 283 285 288 290 287 286 276 279 281 282 282 282 281 282 280 281 278 282 281 286 288 288 287 288 289 289 288
273 273 273 272 276 274 273 271 275 278 280 279 276 283 284 280 281 280 284 284 284 285 283 286 280 281 278 283 281 278 281 282 282 282 282 282 282 289 291 291 289 288 286 286 287
281 281 279 278 276 274 273 274 276 280 280 281 281 280 279 281 282 283 284 284 283 281 280 278 278 270 271 276 274 270 277 280 281 283 282 280 285 288 287 288 289 286 286 288 287
Wind_Speed
21 22 20 13 10 10 6 13 21 18 12 10 13 13 11 9 3 2 3 3 3 6 3 4 4 8 4 1 1 2 5 3 5 6 5 1 4 2 1 6 2 2 3 5 12
21 23 21 20 18 17 16 23 12 11 13 5 16 16 12 10 2 2 3 5 5 6 5 6 7 7 2 2 3 2 5 4 1 1 5 3 4 4 4 3 3 3 3 11 11
20 22 22 22 24 25 6 14 15 14 12 8 14 14 16 10 2 1 7 6 8 6 1 3 2 4 3 4 3 3 4 2 2 2 3 4 4 2 8 2 4 9 12 12 9
19 21 20 20 17 17 13 17 16 13 11 8 10 14 10 4 3 3 12 9 12 4 2 5 3 3 4 4 3 9 6 3 2 5 3 4 5 3 2 1 5 11 11 8 11
20 20 18 17 14 12 11 14 14 18 11 6 7 12 4 1 3 7 14 10 9 4 3 4 3 4 6 4 2 8 2 5 3 8 5 5 4 3 1 3 4 10 8 9 8
20 20 20 16 15 14 11 12 13 13 9 5 7 9 4 1 5 8 12 8 3 5 4 3 5 4 7 4 7 3 6 3 5 5 4 3 1 1 2 0 5 7 7 6 8
20 20 18 18 16 14 11 13 13 11 7 6 8 5 1 3 6 12 8 4 3 4 6 4 2 4 4 6 2 4 6 4 7 4 3 1 1 3 4 5 6 5 4 4 6
18 19 19 20 16 13 11 16 12 13 9 2 9 3 3 2 6 11 8 4 5 7 8 5 6 10 5 5 6 5 5 4 3 4 3 2 6 1 5 8 8 6 5 6 6
19 20 20 19 17 11 12 6 12 10 5 4 5 2 3 9 2 7 5 3 4 6 8 5 7 5 4 7 5 6 3 2 1 3 3 3 5 3 3 4 7 8 7 7 7
21 20 20 19 18 14 7 2 5 5 2 1 2 4 8 6 6 8 6 6 8 6 7 9 6 4 4 4 5 4 5 2 3 5 3 2 9 6 6 8 9 8 9 10 11
20 20 18 19 18 12 6 3 3 6 9 3 4 2 2 9 6 8 6 6 6 9 5 5 8 7 7 5 5 7 5 4 1 3 2 5 7 11 7 7 10 12 11 12 14
19 20 20 16 14 7 6 6 3 2 8 6 5 6 4 1 7 17 10 7 7 6 3 8 7 3 6 8 9 6 6 3 1 2 3 4 12 17 9 9 14 16 15 16 10
19 19 19 16 6 9 8 5 5 4 7 6 3 4 4 8 4 9 8 3 6 8 7 7 1 5 6 5 7 4 6 2 3 3 1 7 8 5 5 6 6 9 8 9 12
17 20 18 16 10 2 5 4 2 3 7 7 5 3 4 5 5 3 5 3 7 4 4 6 4 6 6 4 3 4 1 4 2 2 2 3 7 7 4 8 6 9 8 10 9
15 18 13 16 2 6 3 6 5 2 7 2 6 3 4 4 1 6 4 6 5 3 3 1 2 4 3 3 3 3 1 2 2 3 3 3 3 10 5 7 5 5 7 8 9
12 15 4 9 4 1 3 3 3 9 2 3 2 3 3 5 2 4 4 5 1 5 6 2 0 2 3 1 3 5 3 5 4 3 3 2 4 9 3 3 6 5 6 6 6
10 12 7 2 4 11 6 4 7 7 4 4 0 1 3 2 3 4 3 3 3 5 2 3 2 2 2 4 3 5 5 3 6 5 4 1 1 13 8 10 6 10 11 7 8
6 6 4 3 3 4 4 8 7 2 3 0 1 2 4 3 3 3 2 2 3 4 3 4 3 4 1 2 4 2 4 5 4 2 4 1 6 9 5 5 7 7 7 8 7
4 4 3 5 5 2 6 6 8 6 3 5 3 5 1 0 3 3 2 2 2 3 4 4 4 3 3 2 1 2 2 1 5 2 2 4 7 10 4 3 7 8 9 10 10
3 3 3 9 5 4 7 3 3 4 5 2 3 1 3 2 3 4 4 3 2 5 1 2 0 3 5 2 4 2 5 4 3 0 5 6 6 7 6 8 7 8 9 9 7
5 4 4 9 3 7 4 6 2 3 2 4 2 3 2 1 2 1 1 1 1 4 1 3 3 2 1 2 6 2 0 5 2 4 4 4 7 7 6 1 8 10 9 8 8
3 3 4 4 6 2 4 5 1 1 3 2 4 4 3 2 2 1 2 2 0 3 4 2 4 2 5 1 1 4 6 7 5 4 5 2 10 3 2 3 5 7 4 5 5
3 2 3 3 4 1 3 2 1 2 0 2 3 3 1 4 1 2 1 3 1 1 3 4 2 3 9 5 2 4 3 4 3 3 15 1 12 2 5 11 12 8 9 9 7
4 2 5 5 1 7 6 2 4 1 3 2 4 2 3 3 3 1 1 4 5 4 7 3 2 5 6 2 1 2 1 2 5 6 10 16 22 26 16 10 11 11 9 8 9
3 5 3 4 3 4 2 5 4 4 1 3 1 5 7 4 3 3 1 2 4 5 4 3 2 1 4 4 2 4 2 5 3 9 9 17 14 26 18 13 7 6 8 10 11
6 5 3 2 5 8 4 8 11 4 7 5 6 9 8 8 8 9 7 4 3 4 3 3 2 2 4 5 4 4 4 8 13 15 18 18 30 18 23 20 14 11 8 9 9
4 0 2 8 6 6 7 8 11 8 3 2 6 5 4 6 5 4 5 5 4 6 4 3 4 4 6 4 5 8 12 15 16 16 8 19 26 17 17 18 16 6 7 12 7
Wind_Direction
353 353 350 6 20 24 21 323 300 288 160 39 66 65 53 28 330 153 237 314 269 221 93 29 210 239 215 198 44 128 70 133 163 158 150 143 126 37 105 105 74 23 343 110 127
357 351 359 13 3 359 337 296 254 152 105 62 35 41 42 24 50 271 331 311 272 235 168 191 188 182 81 54 356 123 83 159 190 121 126 108 97 130 115 102 91 113 99 113 133
1 358 9 11 15 350 1 84 106 107 83 58 18 17 34 14 30 96 335 315 253 242 190 149 249 155 88 53 330 356 99 156 44 71 103 118 85 57 127 227 196 166 146 140 152
3 4 13 14 17 26 60 98 102 96 92 58 14 351 40 29 101 295 347 297 260 239 157 170 154 80 76 97 288 95 76 45 26 8 55 88 106 76 359 281 282 143 141 149 171
3 4 11 19 2 41 55 92 111 115 120 93 22 346 62 341 281 324 314 273 242 189 163 152 70 114 103 116 39 76 91 54 66 66 60 76 49 150 346 347 104 123 147 159 171
3 357 1 5 6 32 92 84 91 95 118 59 352 339 51 39 358 298 284 272 208 151 182 77 142 131 92 70 60 90 88 92 41 67 57 103 116 38 193 200 106 138 159 173 185
3 355 354 10 8 32 57 110 102 103 94 38 341 9 300 48 325 292 276 259 272 161 109 44 156 96 125 85 146 101 78 61 24 22 46 333 287 227 165 161 160 179 195 198 214
1 352 356 15 7 24 65 98 127 134 114 18 330 17 52 46 292 299 319 23 19 64 93 93 72 92 66 141 44 64 58 82 348 16 357 45 269 39 173 155 192 217 216 232 248
2 355 358 12 10 13 62 103 106 93 60 10 11 10 347 320 7 290 11 27 36 46 53 58 63 76 51 97 55 25 107 95 4 45 10 79 279 36 168 186 213 217 231 242 255
360 354 3 5 6 7 57 110 62 104 145 20 312 28 15 319 309 325 336 24 54 31 36 40 57 84 50 71 154 154 109 32 318 348 29 312 270 273 192 195 224 224 225 226 233
1 351 358 8 5 15 41 22 37 28 35 74 304 28 5 300 286 350 349 357 30 47 58 17 73 89 105 75 107 112 99 101 284 338 253 252 280 276 231 218 230 232 231 232 231
3 355 347 4 2 18 71 57 11 292 74 27 3 16 336 288 3 354 10 52 46 65 10 51 58 87 85 80 86 83 96 34 335 303 209 318 274 264 212 222 217 220 224 233 239
0 0 343 343 61 42 78 50 316 323 86 37 27 37 327 344 30 338 9 357 55 50 43 84 42 121 89 67 79 47 107 132 209 299 71 318 294 298 289 254 277 251 244 238 232
8 358 346 333 70 296 34 323 347 279 85 338 5 6 338 321 13 293 6 43 35 83 51 66 346 100 89 77 108 80 284 152 148 71 275 27 287 299 320 298 249 252 233 241 228
10 4 4 30 124 80 288 324 331 32 86 60 319 290 319 104 225 335 326 23 64 66 95 268 73 89 73 171 127 140 108 79 74 86 21 7 69 272 338 323 335 325 253 254 244
12 16 41 347 31 105 260 184 80 47 261 323 281 334 56 12 27 300 10 53 174 78 43 94 334 59 143 41 68 136 96 48 50 67 32 305 112 290 288 286 325 317 295 304 296
21 39 65 87 327 324 347 41 35 95 274 277 197 97 104 60 65 29 17 42 117 98 61 15 6 307 162 88 31 76 63 345 1 14 224 102 133 252 274 273 260 283 301 333 333
28 61 48 99 276 290 8 44 61 227 230 279 208 44 78 10 20 32 76 107 43 74 124 146 267 209 167 160 174 108 133 144 252 279 279 122 235 252 225 281 270 286 292 313 333
56 5 42 319 335 38 70 57 198 209 158 147 25 74 24 29 108 64 56 151 256 205 129 121 284 320 65 27 77 178 163 167 95 52 28 246 291 286 330 353 7 9 18 352 344
77 69 325 322 323 61 76 210 200 203 143 156 134 145 159 187 121 154 176 215 238 209 355 160 306 17 349 41 35 145 161 65 9 350 285 288 271 238 309 324 347 359 356 343 343
60 52 269 333 340 53 139 201 261 316 359 123 127 102 64 121 81 36 113 316 198 36 75 125 122 309 94 165 181 63 105 54 125 157 213 285 260 222 219 294 346 339 349 346 342
95 38 307 5 61 341 159 187 67 338 333 35 108 118 129 163 77 299 211 283 1 133 132 221 120 197 232 142 111 159 180 164 159 226 232 245 261 222 286 343 296 337 339 252 248
106 178 324 63 147 215 320 161 208 119 138 24 51 51 45 157 7 216 183 19 306 54 133 191 340 30 343 1 20 227 196 192 76 65 246 302 262 234 358 336 303 289 317 319 322
95 78 338 49 127 133 138 239 179 172 140 171 138 113 104 102 24 190 256 15 26 27 32 102 139 168 190 208 44 268 302 232 198 239 281 249 283 279 282 284 289 303 312 330 317
52 244 196 195 261 112 124 144 165 181 149 187 127 172 155 127 98 185 229 356 58 353 46 93 186 186 269 271 269 247 280 329 304 270 251 278 270 277 296 292 285 313 303 301 297
141 147 343 140 127 109 183 214 181 203 156 229 165 182 174 163 173 183 160 178 181 44 62 10 237 125 286 276 313 285 278 243 260 261 258 269 269 266 282 289 301 292 285 293 301
142 20 111 159 144 125 206 194 200 147 245 224 174 116 210 200 145 80 94 106 150 154 137 124 129 73 252 25 321 284 204 213 241 250 242 258 269 289 295 297 302 301 293 290 314